{"data":{"norad_id":55746,"epoch":"2026-05-25T03:32:05.368704Z","epoch_age_seconds":62220,"freshness":"FRESH","line1":"1 55746U 23028F   26145.14728436  .00000290  00000+0  32125-4 0  9992","line2":"2 55746  70.0007  51.6473 0002671 270.3397  89.7456 14.98331452177493","mean_motion":14.98331452,"eccentricity":0.0002671,"inclination_deg":70.0007,"raan_deg":51.6473,"arg_perigee_deg":270.3397,"mean_anomaly_deg":89.7456,"bstar":3.2125e-5,"rev_number":17749,"period_min":96.106905990518,"perigee_km":570.19500543598,"apogee_km":573.90779607966,"semimajor_km":6950.1884007578,"source":"CELESTRAK","updated_at":"2026-05-25T13:38:17.878733Z"}}